Current Version              Previous Version:    01  02  03  04  05  06  07  08  09  10  11  12  13  14  15  16  17  18  19  20  21  22  23  24  25  26  27  28  29  30  
   31  32  33  34  35  36  37  38  39  40  41  42  43  44  45  46  47  48  49  50  51  52  53  54  55  56  57  58  59  60  

[Printable]
057
ASUS44 KFWD 021501
RWRTX
NORTH TEXAS HOURLY WEATHER ROUNDUP
NATIONAL WEATHER SERVICE FORT WORTH TX
ISSUED BY NATIONAL WEATHER SERVICE TULSA OK
1000 AM CDT THU OCT 02 2014

NOTE: "FAIR" INDICATES FEW OR NO CLOUDS BELOW 12,000 FEET WITH NO
SIGNIFICANT WEATHER AND/OR OBSTRUCTIONS TO VISIBILITY.

TXZ118-119-021600-
DALLAS/FORT WORTH METROPLEX

CITY           SKY/WX    TMP DP  RH WIND       PRES   REMARKS
DFW AIRPORT    PTSUNNY   83  72  69 S17G25    29.81F
DALLAS LOVE    PTSUNNY   83  72  69 S15G23    29.82S
FTW MEACHAM    FAIR      84  72  67 S16G25    29.81S
DAL-EXECUTIVE  PTSUNNY   83  73  72 S13G22    29.83S
FTW-ALLIANCE   PTSUNNY   84  72  67 S16G25    29.81R
FTW-NAS-JRB    FAIR      86  71  60 S18       29.85S HX  91
FTW-SPINKS     PTSUNNY   82  72  69 S14G21    29.84S
ARLINGTON      CLOUDY    82  72  71 S18G28    29.82F
GRAND PRAIRIE  CLOUDY    81  72  74 MISG      29.84S
MESQUITE       CLOUDY    81  73  78 S15       29.85
$$

TXZ091>094-102>105-117-120-121-131>134-021600-
NORTH CENTRAL TEXAS

CITY           SKY/WX    TMP DP  RH WIND       PRES   REMARKS
SHRMAN/DENISON FAIR      82  71  67 S17G25    29.83S
GAINESVILLE    PTSUNNY   80  71  73 S14G22    29.83S
BRIDGEPORT     FAIR      80  68  65 S12       29.83R
DECATUR        PTSUNNY   78  69  74 S13       29.82S
DENTON         FAIR      82  71  69 S17       29.82R
MCKINNEY       PTSUNNY   81  72  74 S15       29.83S
GREENVILLE     CLOUDY    82  72  69 S14       29.85S
TERRELL        PTSUNNY   83  73  72 S15       29.85S
WAXAHACHIE     CLOUDY    81  74  78 S18       29.85F
CLEBURNE       FAIR      82  75  78 S14G21    29.85S
GRANBURY       PTSUNNY   83  71  66 S13       29.83R
$$

TXZ083>090-098>101-113>116-127>130-139>142-154-155-021600-
WESTERN NORTH TEXAS

CITY           SKY/WX    TMP DP  RH WIND       PRES   REMARKS
WICHITA FALLS  NOT AVBL
WF-KICKAPOO    PTSUNNY   79  69  70 SW9       29.80R
ABILENE        NOT AVBL
ABILENE-DYESS  FAIR      80  68  66 SW18G28   29.83R
MINERAL WELLS  PTSUNNY   78  70  76 S8        29.82R
STEPHENVILLE   FAIR      79  71  74 S10G16    29.87R
COMANCHE       PTSUNNY   79  71  75 SW8       29.87R
COLEMAN        FAIR      81  69  66 SW10      29.88R
BRADY            N/A     82  70  65 S17       29.85S
$$

TXZ143>147-156>162-174-175-021600-
CENTRAL TEXAS

CITY           SKY/WX    TMP DP  RH WIND       PRES   REMARKS
WACO           CLOUDY    82  73  74 S15       29.85S
WACO-TSTC      PTSUNNY   82  73  74 S13       29.85S HAZE
WACO-MCGREGOR  CLOUDY    81  70  69 S16G22    29.87S
CORSICANA      PTSUNNY   84  72  67 S16G25    29.87S
HEARNE         CLOUDY    82  76  81 S13       29.88S
TEMPLE         CLOUDY    81  70  69 S15G22    29.86S
KILLEEN GRAY   CLOUDY    81  72  74 S17       29.86S
KILLEEN-SKYLRK CLOUDY    81  70  69 S12G17    29.86S
FORT HOOD      PTSUNNY   83  73  72 SE13G18   29.86S
HAMILTON       FAIR      81  70  70 S18G29    29.86F
LAMPASAS       CLOUDY    80  74  82 S10       29.87R
$$

TXZ095>097-106>112-122>126-135>138-148>153-164>167-021600-
EAST TEXAS

CITY           SKY/WX    TMP DP  RH WIND       PRES   REMARKS
PARIS          PTSUNNY   81  68  65 S14       29.86S
MOUNT PLEASANT CLOUDY   N/A N/A N/A S8        29.89S
MINEOLA        PTSUNNY   82  75  78 S6G16     29.88F
TYLER          PTSUNNY   82  74  76 S12       29.88S
LONGVIEW       CLOUDY    82  73  74 S10       29.89S
PALESTINE      PTSUNNY   81  75  82 S10       29.90S
JACKSONVILLE   CLOUDY    80  75  83 S10       29.92S
HENDERSON      CLOUDY    81  74  80 S8        29.90S
NACOGDOCHES    CLOUDY    81  75  83 SW8       29.91R
LUFKIN         FAIR      84  76  76 S10       29.91R HAZE    HX  93
$$

SUPPLEMENTAL OBSERVATIONS (CENTRAL)

CITY           SKY/WX    TMP DP  RH WIND       PRES   REMARKS
$$

SUPPLEMENTAL OBSERVATIONS (WEST)

CITY           SKY/WX    TMP DP  RH WIND       PRES   REMARKS
$$

SUPPLEMENTAL OBSERVATIONS (EAST)

CITY           SKY/WX    TMP DP  RH WIND       PRES   REMARKS
$$

SUPPLEMENTAL OBSERVATIONS ARE A COLLECTION OF AUTOMATED INSTRUMENTS
THAT ARE MAINTAINED BY A VARIETY OF FEDERAL AND STATE AGENCIES.
CERTAIN ELEMENTS...SUCH AS HUMIDITY VALUES AND SUSTAINED WIND
SPEEDS...MAY BE ESTIMATED.